NOAA 16 DEB, 41199

Orbit data source: Space-Track

NOAA 16 DEB, 41199 is space debris in SSO originally from a launch on Thu, 21 Sep 2000 UTC launched from the Air Force Western Test Range (AFWTR). Debris objects in space refer to the collection of defunct objects orbiting the Earth. Examples of debris include non-operational satellites, rocket bodies, and fragments generated from explosions, collisions, or faulty payload assembly.

Loading next visibility...
Identifier
41199, 2000-055DC
Orbit
SSO
Country
Flag of USUS
Related business
Manufacturer
Unknown
Mission
Spacecraft
Bus & Motor
Unknown
Mass
Unknown
Launch date (UTC)
2000-09-21 (25 years ago)
Launch vehicle
Unknown
Launch site
Air Force Western Test Range (AFWTR)
Object type
Payload
Rocket body
Debris
Shape & HBR
Unknown shape, 0.1 m
Radar Cross Section
Small (<0.1 m²)

Expand to show TLE details & history
Last TLE update: 8 hours ago

TLE from 8 hours ago
0 NOAA 16 DEB
1 41199U 00055DC  25354.00952822  .00002218  00000-0  12035-2 0  9997
2 41199  98.7486   8.4179 0059914 119.1296 241.5892 14.12474771513866
Epoch: 2025-12-20T00:13Z
TLE epoch observation values (Epoch: 2025-12-20T00:13:43.238Z)
Latitude
0.00005°
Longitude
-83.85475°
Altitude
874.63 km
Speed
7.404 km/s
True Right ascension
00h 33m 40s
True Declination
0° 00' 00"
Sunlit
Object was in daylight at epoch
Visualization orbit readout
Latitude
Unknown
Longitude
Unknown
Altitude
Unknown
Speed
Unknown
Apparent Right ascension
Unknown
Apparent Declination
Unknown
Sunlit
N/A
Visualization observer readout
Local Sidereal Time
07:29:48
Azimuth
Unknown
Elevation
Unknown
Doppler factor
Unknown
Orbital elements
Apogee altitude
891.381 km
Perigee altitude
804.791 km
Semi-major axis
7,226.223 km
Eccentricity
0.00599
Inclination
98.7486°
RAAN
8.4179°
Arg. of periapsis
119.1296°
True anomaly
240.98748°
Mean anomaly
241.5892°
Eccentric anomaly
241.28813°
Mean motion
3.53326 °/min
Orbital period
101.89 mins
BSTAR
0.0012035
Loading maneuver chart data...
Computing Atmospheric mass density...
Loading historical data...
Loading historical data...
Loading historical data...
Loading historical data...
Loading historical data...
Loading historical data...
Loading historical data...

Documentation

Showing up to 5 results
|